Greenville, WI

4:52 PM CDT on August 24, 2016 (GMT -0500)
Outagamie County Regional

Weather History for KATW - February, 2014

Change the Weather History Date:

Wednesday, February 19, 2014

  Actual Average Record
Temperature  
Mean Temperature 32 °F -  
Max Temperature 42 °F 32 °F 58 °F (1981)
Min Temperature 23 °F 17 °F -16 °F (2015)
Degree Days  
Heating Degree Days 32    
Moisture  
Dew Point 23 °F    
Average Humidity 71    
Maximum Humidity 80    
Minimum Humidity 42    
Precipitation  
Precipitation 0.00 in - - ()
Sea Level Pressure  
Sea Level Pressure 29.75 in    
Wind  
Wind Speed 11 mph (WSW)    
Max Wind Speed 15 mph    
Max Gust Speed -    
Visibility 10 miles    
Events      
Averages and records for this station are not official NWS values.
T = Trace of Precipitation, MM = Missing Value Source: NWS Daily Summary

Daily Weather History Graph

Daily Weather History Graph

Search for Another Location

Airport or City:

Trip Planner

Search our weather history database for the weather conditions in past years. The results will help you decide how hot, cold, wet, or windy it might be!

Date:

Astronomy

Feb. 19, 2014 Rise Set
Actual Time 6:47 AM CST 5:28 PM CST
Civil Twilight 6:18 AM CST 5:58 PM CST
Nautical Twilight 5:44 AM CST 6:32 PM CST
Astronomical Twilight 5:10 AM CST 7:05 PM CST
Moon 10:34 PM CST (2/19) 8:42 AM CST (2/19)
Length of Visible Light 11h 40m
Length of Day
10h 41m
Waning Gibbous, 79% of the Moon is Illuminated
Feb 19
Waning Gibbous
Feb 22
Last Quarter
Mar 1
New
Mar 8
First Quarter
Mar 16
Full

Hourly Weather History & Observations

Time (CST) Temp. Windchill Dew Point Humidity Pressure Visibility Wind Dir Wind Speed Gust Speed Precip Events Conditions
12:15 AM 32.0 °F 22.1 °F 26.6 °F 80% 29.63 in 10.0 mi WNW 13.8 mph - N/A   Overcast
12:35 AM 32.0 °F 21.6 °F 26.6 °F 80% 29.64 in 10.0 mi WNW 15.0 mph - N/A   Overcast
12:55 AM 32.0 °F 23.0 °F 26.6 °F 80% 29.64 in 10.0 mi WNW 11.5 mph - N/A   Overcast
1:15 AM 32.0 °F 24.2 °F 26.6 °F 80% 29.63 in 10.0 mi West 9.2 mph - N/A   Overcast
1:35 AM 32.0 °F 23.6 °F 26.6 °F 80% 29.64 in 10.0 mi West 10.4 mph - N/A   Overcast
1:55 AM 32.0 °F 24.2 °F 26.6 °F 80% 29.64 in 10.0 mi West 9.2 mph - N/A   Overcast
2:15 AM 32.0 °F 23.6 °F 26.6 °F 80% 29.64 in 10.0 mi West 10.4 mph - N/A   Overcast
2:35 AM 30.2 °F 20.8 °F 24.8 °F 80% 29.64 in 10.0 mi West 11.5 mph - N/A   Mostly Cloudy
2:55 AM 30.2 °F 19.8 °F 23.0 °F 75% 29.64 in 10.0 mi West 13.8 mph - N/A   Scattered Clouds
3:15 AM 30.2 °F 20.2 °F 23.0 °F 75% 29.64 in 10.0 mi WNW 12.7 mph - N/A   Scattered Clouds
3:35 AM 28.4 °F 18.5 °F 23.0 °F 80% 29.65 in 10.0 mi West 11.5 mph - N/A   Scattered Clouds
3:55 AM 28.4 °F 18.5 °F 23.0 °F 80% 29.66 in 10.0 mi West 11.5 mph - N/A   Clear
4:15 AM 28.4 °F 18.0 °F 23.0 °F 80% 29.67 in 10.0 mi West 12.7 mph - N/A   Clear
4:35 AM 28.4 °F 18.0 °F 21.2 °F 74% 29.68 in 10.0 mi West 12.7 mph - N/A   Clear
4:55 AM 26.6 °F 16.2 °F 21.2 °F 80% 29.69 in 10.0 mi West 11.5 mph - N/A   Clear
5:15 AM 26.6 °F 15.2 °F 21.2 °F 80% 29.70 in 10.0 mi West 13.8 mph - N/A   Clear
5:20 AM 26.6 °F 15.7 °F 19.4 °F 74% 29.69 in 10.0 mi West 12.7 mph - N/A   Mostly Cloudy
5:45 AM 24.8 °F 13.4 °F 19.4 °F 80% 29.70 in 10.0 mi West 12.7 mph - N/A   Mostly Cloudy
6:45 AM 23.0 °F 11.1 °F 17.6 °F 80% 29.74 in 10.0 mi West 12.7 mph - N/A   Mostly Cloudy
7:45 AM 24.8 °F 13.4 °F 17.6 °F 74% - 10.0 mi West 12.7 mph - N/A   Scattered Clouds
8:45 AM 26.6 °F 16.8 °F 19.4 °F 74% 29.78 in 10.0 mi WSW 10.4 mph - N/A   Clear
9:45 AM 30.2 °F 21.3 °F 21.2 °F 69% 29.81 in 10.0 mi West 10.4 mph - N/A   Clear
10:45 AM 33.8 °F 26.4 °F 21.2 °F 60% 29.82 in 10.0 mi West 9.2 mph - N/A   Clear
11:45 AM 37.4 °F 30.8 °F 21.2 °F 52% 29.84 in 10.0 mi WSW 9.2 mph - N/A   Clear
12:45 PM 39.2 °F 33.6 °F 21.2 °F 49% 29.83 in 10.0 mi SW 8.1 mph - N/A   Clear
1:45 PM 41.0 °F 35.8 °F 21.2 °F 45% 29.84 in 10.0 mi SW 8.1 mph - N/A   Clear
2:45 PM 42.8 °F 37.0 °F 21.2 °F 42% 29.84 in 10.0 mi WSW 10.4 mph - N/A   Partly Cloudy
3:45 PM 41.0 °F 35.8 °F 24.8 °F 53% 29.86 in 10.0 mi SSW 8.1 mph - N/A   Scattered Clouds
4:45 PM 39.2 °F 33.0 °F 24.8 °F 56% 29.86 in 10.0 mi South 9.2 mph - N/A   Scattered Clouds
5:45 PM 35.6 °F 28.6 °F 24.8 °F 65% 29.87 in 10.0 mi SSW 9.2 mph - N/A   Scattered Clouds
6:45 PM 33.8 °F 27.0 °F 24.8 °F 70% 29.88 in 10.0 mi South 8.1 mph - N/A   Scattered Clouds
7:45 PM 33.8 °F 25.8 °F 23.0 °F 65% 29.87 in 10.0 mi South 10.4 mph - N/A   Mostly Cloudy
8:45 PM 30.2 °F 23.4 °F 21.2 °F 69% 29.87 in 10.0 mi South 6.9 mph - N/A   Mostly Cloudy
9:45 PM 28.4 °F 22.2 °F 21.2 °F 74% 29.88 in 10.0 mi South 5.8 mph - N/A   Mostly Cloudy
10:45 PM 28.4 °F 20.4 °F 21.2 °F 74% 29.88 in 10.0 mi South 8.1 mph - N/A   Mostly Cloudy
11:15 PM 28.4 °F 24.6 °F 21.2 °F 74% 29.88 in 10.0 mi SSE 3.5 mph - N/A   Clear
11:35 PM 26.6 °F 21.2 °F 21.2 °F 80% 29.88 in 10.0 mi South 4.6 mph - N/A   Scattered Clouds
11:55 PM 30.2 °F - 21.2 °F 69% 29.87 in 10.0 mi Calm Calm - N/A   Overcast